This demonstration page uses our WeatherBlox Daily Observations layout. Learn more.

Left ArrowRight Arrow

Hourly Observations for June 29, 2022

Temp ( °F °C ) Dew Point ( °F °C ) Humidity (%) Winds ( mph kmh ) Pressure ( in mb ) Visibility ( mi km ) Precip ( " mm )
12:54 am 00:54 Clear 74 23.3 58 14.4 57 57 SSW 9 15 30.07 1018 10 16 0.00 0.00
1:54 am 01:54 Clear 73 22.8 58 14.4 59 59 SSW 8 13 30.07 1018 10 16 0.00 0.00
2:54 am 02:54 Clear 71 21.7 57 13.9 61 61 SSW 7 11 30.08 1019 10 16 0.00 0.00
3:54 am 03:54 Clear 70 21.1 56 13.3 61 61 SSW 7 11 30.06 1018 10 16 0.00 0.00
4:54 am 04:54 Clear 69 20.6 56 13.3 63 63 SSW 7 11 30.08 1019 10 16 0.00 0.00
5:54 am 05:54 Clear 67 19.4 55 12.8 66 66 S 7 11 30.08 1019 10 16 0.00 0.00
6:54 am 06:54 Sunny 69 20.6 56 13.3 63 63 S 8 13 30.09 1019 10 16 0.00 0.00
7:54 am 07:54 Sunny 72 22.2 56 13.3 57 57 SSW 8 13 30.09 1019 10 16 0.00 0.00
8:54 am 08:54 Sunny 76 24.4 58 14.4 54 54 SSW 10 17 30.09 1019 10 16 0.00 0.00
9:54 am 09:54 Sunny 81 27.2 59 15 47 47 SW 15 24 30.09 1019 10 16 0.00 0.00
10:54 am 10:54 Sunny 86 30 61 16.1 43 43 SSW 15 24 30.07 1018 10 16 0.00 0.00
11:54 am 11:54 Sunny 90 32.2 62 16.7 39 39 SSW 15 24 30.07 1018 10 16 0.00 0.00
12:54 pm 12:54 Sunny 92 33.3 61 16.1 36 36 SSW 16 26 30.05 1018 10 16 0.00 0.00
1:54 pm 13:54 Sunny 94 34.4 63 17.2 36 36 S 18 30 30.02 1017 10 16 0.00 0.00
2:54 pm 14:54 Sunny 94 34.4 62 16.7 35 35 SSW 18 30 29.99 1016 10 16 0.00 0.00
3:54 pm 15:54 Sunny 94 34.4 62 16.7 35 35 SSW 24 39 29.98 1015 10 16 0.00 0.00
4:54 pm 16:54 Sunny 93 33.9 57 13.9 30 30 SSW 24 39 29.97 1015 10 16 0.00 0.00
5:54 pm 17:54 Sunny 93 33.9 55 12.8 28 28 SSW 21 33 29.96 1014 10 16 0.00 0.00
6:54 pm 18:54 Sunny 91 32.8 57 13.9 32 32 S 18 30 29.94 1014 10 16 0.00 0.00
7:54 pm 19:54 Sunny 88 31.1 57 13.9 35 35 S 14 22 29.96 1014 10 16 0.00 0.00
8:54 pm 20:54 Sunny 83 28.3 57 13.9 41 41 S 14 22 29.94 1014 10 16 0.00 0.00
9:54 pm 21:54 Clear 80 26.7 58 14.4 47 47 S 16 26 29.95 1014 10 16 0.00 0.00
10:54 pm 22:54 Clear 80 26.7 56 13.3 44 44 S 17 28 29.94 1014 10 16 0.00 0.00
11:54 pm 23:54 Clear 80 26.7 56 13.3 44 44 S 16 26 29.94 1014 10 16 0.00 0.00

Powered by AerisWeather